contact:dominique.lefevre@mio.osupytheas.fr, maurice.libes@osupytheas.fr, didier.mallarino@osupytheas.fr
Project:EMSO http://www.emso-fr.org/EMSO-France
Depth: 2436.0 m
Title:EMSO Ligure Ouest : Data MII capteur CSTAR
DateTime,Latitude,Longitude,Instrument_Serial,Reference_Counts,Signal_Counts,Corrected_Signal_raw_counts,Calculated_Beam_c_inverse_meters,Internal_thermistor_counts
DateTime,Latitude,Longitude,Instrument_Serial,Reference_Counts,Signal_Counts,Corrected_Signal_raw_counts,Calculated_Beam_c_inverse_meters,Internal_thermistor_counts
2019-11-01T00:01:03,42.805,6.029,CST-1368DR,7469,10461,15320,0.077,551
2019-11-01T00:04:05,42.805,6.029,CST-1368DR,7469,10462,15322,0.076,551
2019-11-01T00:07:07,42.805,6.029,CST-1368DR,7469,10461,15321,0.076,551
2019-11-01T00:10:08,42.805,6.029,CST-1368DR,7469,10461,15321,0.076,551
2019-11-01T00:13:10,42.805,6.029,CST-1368DR,7469,10461,15320,0.077,551
2019-11-01T00:16:12,42.805,6.029,CST-1368DR,7468,10461,15323,0.076,551
2019-11-01T00:19:13,42.805,6.029,CST-1368DR,7469,10462,15321,0.076,551
2019-11-01T00:22:15,42.805,6.029,CST-1368DR,7469,10462,15322,0.076,551
2019-11-01T00:25:17,42.805,6.029,CST-1368DR,7469,10461,15321,0.076,551
2019-11-01T00:28:18,42.805,6.029,CST-1368DR,7468,10461,15322,0.076,551
2019-11-01T00:31:20,42.805,6.029,CST-1368DR,7469,10461,15320,0.077,551
2019-11-01T00:34:21,42.805,6.029,CST-1368DR,7469,10461,15320,0.077,551
2019-11-01T00:37:23,42.805,6.029,CST-1368DR,7468,10460,15321,0.076,551
2019-11-01T00:40:25,42.805,6.029,CST-1368DR,7468,10461,15323,0.076,551
2019-11-01T00:43:27,42.805,6.029,CST-1368DR,7468,10461,15322,0.076,551
2019-11-01T00:46:28,42.805,6.029,CST-1368DR,7468,10461,15323,0.076,551
2019-11-01T00:49:30,42.805,6.029,CST-1368DR,7468,10461,15323,0.076,551
2019-11-01T00:52:32,42.805,6.029,CST-1368DR,7468,10461,15322,0.076,551
2019-11-01T00:55:34,42.805,6.029,CST-1368DR,7468,10461,15323,0.076,551
2019-11-01T00:58:35,42.805,6.029,CST-1368DR,7468,10461,15322,0.076,551
2019-11-01T01:01:37,42.805,6.029,CST-1368DR,7468,10461,15322,0.076,551
2019-11-01T01:04:38,42.805,6.029,CST-1368DR,7468,10460,15320,0.077,551
2019-11-01T01:07:40,42.805,6.029,CST-1368DR,7468,10460,15321,0.076,550
2019-11-01T01:10:42,42.805,6.029,CST-1368DR,7468,10459,15319,0.077,551
2019-11-01T01:13:43,42.805,6.029,CST-1368DR,7468,10460,15320,0.077,551
2019-11-01T01:16:45,42.805,6.029,CST-1368DR,7468,10460,15321,0.076,551
2019-11-01T01:19:47,42.805,6.029,CST-1368DR,7468,10461,15322,0.076,550
2019-11-01T01:22:49,42.805,6.029,CST-1368DR,7468,10461,15323,0.076,551
2019-11-01T01:25:50,42.805,6.029,CST-1368DR,7468,10461,15322,0.076,551
2019-11-01T01:28:52,42.805,6.029,CST-1368DR,7468,10457,15316,0.078,551
2019-11-01T01:31:54,42.805,6.029,CST-1368DR,7468,10461,15322,0.076,551
2019-11-01T01:34:55,42.805,6.029,CST-1368DR,7468,10460,15321,0.076,551
2019-11-01T01:37:57,42.805,6.029,CST-1368DR,7468,10459,15320,0.077,551
2019-11-01T01:40:59,42.805,6.029,CST-1368DR,7468,10461,15322,0.076,551
2019-11-01T01:44:00,42.805,6.029,CST-1368DR,7468,10460,15320,0.077,551
2019-11-01T01:47:02,42.805,6.029,CST-1368DR,7468,10461,15322,0.076,550
2019-11-01T01:50:04,42.805,6.029,CST-1368DR,7468,10460,15321,0.076,551
2019-11-01T01:53:05,42.805,6.029,CST-1368DR,7468,10461,15322,0.076,551
2019-11-01T01:56:07,42.805,6.029,CST-1368DR,7468,10461,15322,0.076,551
2019-11-01T01:59:09,42.805,6.029,CST-1368DR,7468,10457,15316,0.078,551
2019-11-01T02:02:11,42.805,6.029,CST-1368DR,7468,10461,15322,0.076,551
2019-11-01T02:05:12,42.805,6.029,CST-1368DR,7468,10461,15323,0.076,551
2019-11-01T02:08:14,42.805,6.029,CST-1368DR,7468,10461,15322,0.076,551
2019-11-01T02:11:16,42.805,6.029,CST-1368DR,7468,10460,15320,0.077,551
2019-11-01T02:14:17,42.805,6.029,CST-1368DR,7468,10459,15320,0.077,551
2019-11-01T02:17:19,42.805,6.029,CST-1368DR,7468,10461,15322,0.076,551
2019-11-01T02:20:20,42.805,6.029,CST-1368DR,7468,10460,15321,0.076,551
2019-11-01T02:23:22,42.805,6.029,CST-1368DR,7468,10461,15322,0.076,551
2019-11-01T02:26:24,42.805,6.029,CST-1368DR,7468,10461,15322,0.076,551
2019-11-01T02:29:26,42.805,6.029,CST-1368DR,7468,10461,15322,0.076,551
2019-11-01T02:32:27,42.805,6.029,CST-1368DR,7468,10461,15322,0.076,551
2019-11-01T02:35:29,42.805,6.029,CST-1368DR,7468,10461,15322,0.076,551
2019-11-01T02:38:31,42.805,6.029,CST-1368DR,7468,10461,15322,0.076,551
2019-11-01T02:41:32,42.805,6.029,CST-1368DR,7468,10461,15322,0.076,551
2019-11-01T02:44:34,42.805,6.029,CST-1368DR,7468,10461,15322,0.076,551
2019-11-01T02:47:35,42.805,6.029,CST-1368DR,7468,10460,15321,0.076,551
2019-11-01T02:50:37,42.805,6.029,CST-1368DR,7468,10461,15322,0.076,551
2019-11-01T02:53:39,42.805,6.029,CST-1368DR,7468,10460,15321,0.076,551
2019-11-01T02:56:40,42.805,6.029,CST-1368DR,7468,10459,15319,0.077,551
2019-11-01T02:59:42,42.805,6.029,CST-1368DR,7468,10459,15320,0.077,551
2019-11-01T03:02:44,42.805,6.029,CST-1368DR,7468,10460,15320,0.077,550
2019-11-01T03:05:45,42.805,6.029,CST-1368DR,7468,10460,15320,0.077,551
2019-11-01T03:08:47,42.805,6.029,CST-1368DR,7468,10460,15321,0.076,551
2019-11-01T03:11:48,42.805,6.029,CST-1368DR,7468,10460,15321,0.076,551
2019-11-01T03:14:50,42.805,6.029,CST-1368DR,7468,10460,15321,0.076,551
2019-11-01T03:17:52,42.805,6.029,CST-1368DR,7468,10461,15322,0.076,551
2019-11-01T03:20:53,42.805,6.029,CST-1368DR,7468,10458,15318,0.077,551
2019-11-01T03:23:55,42.805,6.029,CST-1368DR,7468,10460,15321,0.076,551
2019-11-01T03:26:57,42.805,6.029,CST-1368DR,7467,10460,15322,0.076,551
2019-11-01T03:29:58,42.805,6.029,CST-1368DR,7468,10460,15320,0.077,551
2019-11-01T03:33:00,42.805,6.029,CST-1368DR,7468,10460,15321,0.076,550
2019-11-01T03:36:02,42.805,6.029,CST-1368DR,7467,10460,15323,0.076,551
2019-11-01T03:39:03,42.805,6.029,CST-1368DR,7467,10459,15321,0.076,551
2019-11-01T03:42:05,42.805,6.029,CST-1368DR,7468,10460,15321,0.076,551
2019-11-01T03:45:06,42.805,6.029,CST-1368DR,7468,10461,15322,0.076,551
2019-11-01T03:48:08,42.805,6.029,CST-1368DR,7467,10460,15323,0.076,551
2019-11-01T03:51:10,42.805,6.029,CST-1368DR,7467,10460,15323,0.076,550
2019-11-01T03:54:11,42.805,6.029,CST-1368DR,7467,10459,15322,0.076,551
2019-11-01T03:57:13,42.805,6.029,CST-1368DR,7467,10459,15322,0.076,551
2019-11-01T04:00:15,42.805,6.029,CST-1368DR,7467,10460,15322,0.076,551
2019-11-01T04:03:17,42.805,6.029,CST-1368DR,7467,10459,15321,0.076,551
2019-11-01T04:06:18,42.805,6.029,CST-1368DR,7467,10459,15321,0.076,551
2019-11-01T04:09:20,42.805,6.029,CST-1368DR,7467,10459,15321,0.076,551
2019-11-01T04:12:21,42.805,6.029,CST-1368DR,7467,10459,15322,0.076,551
2019-11-01T04:15:23,42.805,6.029,CST-1368DR,7467,10460,15322,0.076,551
2019-11-01T04:18:25,42.805,6.029,CST-1368DR,7467,10459,15321,0.076,551
2019-11-01T04:21:27,42.805,6.029,CST-1368DR,7467,10459,15322,0.076,551
2019-11-01T04:24:28,42.805,6.029,CST-1368DR,7467,10460,15322,0.076,551
2019-11-01T04:27:30,42.805,6.029,CST-1368DR,7467,10458,15319,0.077,551
2019-11-01T04:30:32,42.805,6.029,CST-1368DR,7467,10459,15322,0.076,551
2019-11-01T04:33:33,42.805,6.029,CST-1368DR,7467,10459,15322,0.076,551
2019-11-01T04:36:35,42.805,6.029,CST-1368DR,7467,10459,15321,0.076,551
2019-11-01T04:39:36,42.805,6.029,CST-1368DR,7467,10459,15321,0.076,550
2019-11-01T04:42:38,42.805,6.029,CST-1368DR,7467,10459,15321,0.076,551
2019-11-01T04:45:40,42.805,6.029,CST-1368DR,7467,10459,15322,0.076,551
2019-11-01T04:48:41,42.805,6.029,CST-1368DR,7467,10459,15321,0.076,550
2019-11-01T04:51:43,42.805,6.029,CST-1368DR,7467,10459,15321,0.076,551
2019-11-01T04:54:45,42.805,6.029,CST-1368DR,7467,10457,15319,0.077,550
2019-11-01T04:57:46,42.805,6.029,CST-1368DR,7467,10458,15320,0.077,551
2019-11-01T05:00:48,42.805,6.029,CST-1368DR,7467,10458,15319,0.077,551
2019-11-01T05:03:50,42.805,6.029,CST-1368DR,7467,10457,15318,0.077,551
2019-11-01T05:06:51,42.805,6.029,CST-1368DR,7467,10458,15319,0.077,551
2019-11-01T05:09:53,42.805,6.029,CST-1368DR,7467,10458,15320,0.077,551
2019-11-01T05:12:54,42.805,6.029,CST-1368DR,7467,10457,15318,0.077,551
2019-11-01T05:15:56,42.805,6.029,CST-1368DR,7467,10459,15321,0.076,551
2019-11-01T05:18:58,42.805,6.029,CST-1368DR,7467,10458,15319,0.077,551
2019-11-01T05:21:59,42.805,6.029,CST-1368DR,7467,10458,15320,0.077,551
2019-11-01T05:25:01,42.805,6.029,CST-1368DR,7467,10457,15319,0.077,551
2019-11-01T05:28:03,42.805,6.029,CST-1368DR,7467,10458,15319,0.077,551
2019-11-01T05:31:04,42.805,6.029,CST-1368DR,7467,10459,15321,0.076,551
2019-11-01T05:34:06,42.805,6.029,CST-1368DR,7467,10458,15319,0.077,551
2019-11-01T05:37:08,42.805,6.029,CST-1368DR,7467,10457,15319,0.077,550
2019-11-01T05:40:09,42.805,6.029,CST-1368DR,7467,10456,15317,0.077,551
2019-11-01T05:43:11,42.805,6.029,CST-1368DR,7467,10457,15318,0.077,551
2019-11-01T05:46:12,42.805,6.029,CST-1368DR,7467,10456,15317,0.077,551
2019-11-01T05:49:14,42.805,6.029,CST-1368DR,7467,10457,15319,0.077,551
2019-11-01T05:52:16,42.805,6.029,CST-1368DR,7467,10456,15317,0.077,551
2019-11-01T05:55:17,42.805,6.029,CST-1368DR,7467,10454,15313,0.078,551
2019-11-01T05:58:19,42.805,6.029,CST-1368DR,7467,10455,15316,0.078,551
2019-11-01T06:01:21,42.805,6.029,CST-1368DR,7467,10457,15318,0.077,551
2019-11-01T06:04:22,42.805,6.029,CST-1368DR,7467,10455,15316,0.078,551
2019-11-01T06:07:24,42.805,6.029,CST-1368DR,7467,10457,15319,0.077,551
2019-11-01T06:10:26,42.805,6.029,CST-1368DR,7467,10458,15319,0.077,551
2019-11-01T06:13:27,42.805,6.029,CST-1368DR,7467,10457,15318,0.077,550
2019-11-01T06:16:29,42.805,6.029,CST-1368DR,7467,10457,15319,0.077,551
2019-11-01T06:19:31,42.805,6.029,CST-1368DR,7467,10457,15318,0.077,551
2019-11-01T06:22:32,42.805,6.029,CST-1368DR,7467,10457,15319,0.077,551
2019-11-01T06:25:34,42.805,6.029,CST-1368DR,7467,10457,15319,0.077,551
2019-11-01T06:28:36,42.805,6.029,CST-1368DR,7467,10456,15317,0.077,551
2019-11-01T06:31:37,42.805,6.029,CST-1368DR,7467,10458,15320,0.077,551
2019-11-01T06:34:39,42.805,6.029,CST-1368DR,7467,10457,15319,0.077,551
2019-11-01T06:37:40,42.805,6.029,CST-1368DR,7467,10457,15318,0.077,551
2019-11-01T06:40:42,42.805,6.029,CST-1368DR,7467,10456,15317,0.077,551
2019-11-01T06:43:44,42.805,6.029,CST-1368DR,7466,10457,15320,0.077,551
2019-11-01T06:46:45,42.805,6.029,CST-1368DR,7467,10457,15318,0.077,551
2019-11-01T06:49:47,42.805,6.029,CST-1368DR,7466,10457,15320,0.077,551
2019-11-01T06:52:49,42.805,6.029,CST-1368DR,7466,10457,15320,0.077,551
2019-11-01T06:55:50,42.805,6.029,CST-1368DR,7466,10457,15321,0.076,551
2019-11-01T06:58:52,42.805,6.029,CST-1368DR,7466,10456,15319,0.077,551
2019-11-01T07:01:54,42.805,6.029,CST-1368DR,7466,10455,15318,0.077,550
2019-11-01T07:04:56,42.805,6.029,CST-1368DR,7466,10455,15318,0.077,551
2019-11-01T07:07:57,42.805,6.029,CST-1368DR,7466,10457,15320,0.077,551
2019-11-01T07:10:59,42.805,6.029,CST-1368DR,7466,10456,15318,0.077,550
2019-11-01T07:14:01,42.805,6.029,CST-1368DR,7466,10457,15320,0.077,551
2019-11-01T07:17:02,42.805,6.029,CST-1368DR,7466,10457,15320,0.077,551
2019-11-01T07:20:04,42.805,6.029,CST-1368DR,7466,10457,15320,0.077,551
2019-11-01T07:23:06,42.805,6.029,CST-1368DR,7466,10456,15319,0.077,551
2019-11-01T07:26:07,42.805,6.029,CST-1368DR,7466,10455,15318,0.077,551
2019-11-01T07:29:09,42.805,6.029,CST-1368DR,7466,10456,15318,0.077,551
2019-11-01T07:32:10,42.805,6.029,CST-1368DR,7466,10457,15320,0.077,551
2019-11-01T07:35:12,42.805,6.029,CST-1368DR,7466,10457,15320,0.077,551
2019-11-01T07:38:14,42.805,6.029,CST-1368DR,7466,10457,15320,0.077,551
2019-11-01T07:41:16,42.805,6.029,CST-1368DR,7466,10457,15320,0.077,551
2019-11-01T07:44:17,42.805,6.029,CST-1368DR,7466,10457,15320,0.077,551
2019-11-01T07:47:19,42.805,6.029,CST-1368DR,7466,10456,15318,0.077,551
2019-11-01T07:50:20,42.805,6.029,CST-1368DR,7466,10454,15316,0.078,551
2019-11-01T07:53:22,42.805,6.029,CST-1368DR,7466,10456,15319,0.077,551
2019-11-01T07:56:24,42.805,6.029,CST-1368DR,7466,10456,15319,0.077,551
2019-11-01T07:59:25,42.805,6.029,CST-1368DR,7466,10456,15319,0.077,551
2019-11-01T08:02:27,42.805,6.029,CST-1368DR,7466,10456,15318,0.077,551
2019-11-01T08:05:29,42.805,6.029,CST-1368DR,7466,10456,15318,0.077,551
2019-11-01T08:08:30,42.805,6.029,CST-1368DR,7466,10456,15318,0.077,551
2019-11-01T08:11:32,42.805,6.029,CST-1368DR,7466,10457,15320,0.077,551
2019-11-01T08:14:34,42.805,6.029,CST-1368DR,7466,10455,15317,0.077,551
2019-11-01T08:17:35,42.805,6.029,CST-1368DR,7466,10456,15319,0.077,551
2019-11-01T08:20:37,42.805,6.029,CST-1368DR,7466,10456,15318,0.077,551
2019-11-01T08:23:39,42.805,6.029,CST-1368DR,7466,10456,15319,0.077,551
2019-11-01T08:26:40,42.805,6.029,CST-1368DR,7466,10457,15320,0.077,551
2019-11-01T08:29:42,42.805,6.029,CST-1368DR,7466,10456,15319,0.077,551
2019-11-01T08:32:43,42.805,6.029,CST-1368DR,7466,10456,15318,0.077,551
2019-11-01T08:35:45,42.805,6.029,CST-1368DR,7466,10454,15316,0.078,551
2019-11-01T08:38:47,42.805,6.029,CST-1368DR,7466,10457,15320,0.077,551
2019-11-01T08:41:48,42.805,6.029,CST-1368DR,7466,10457,15320,0.077,551
2019-11-01T08:44:50,42.805,6.029,CST-1368DR,7466,10456,15319,0.077,551
2019-11-01T08:47:52,42.805,6.029,CST-1368DR,7466,10456,15318,0.077,551
2019-11-01T08:50:53,42.805,6.029,CST-1368DR,7466,10457,15320,0.077,551
2019-11-01T08:53:55,42.805,6.029,CST-1368DR,7466,10457,15320,0.077,551
2019-11-01T08:56:57,42.805,6.029,CST-1368DR,7466,10456,15319,0.077,551
2019-11-01T08:59:58,42.805,6.029,CST-1368DR,7466,10456,15318,0.077,551
2019-11-01T09:03:00,42.805,6.029,CST-1368DR,7466,10457,15320,0.077,550
2019-11-01T09:06:01,42.805,6.029,CST-1368DR,7466,10454,15316,0.078,551
2019-11-01T09:09:03,42.805,6.029,CST-1368DR,7466,10456,15319,0.077,551
2019-11-01T09:12:05,42.805,6.029,CST-1368DR,7466,10456,15319,0.077,550
2019-11-01T09:15:06,42.805,6.029,CST-1368DR,7466,10457,15320,0.077,551
2019-11-01T09:18:08,42.805,6.029,CST-1368DR,7466,10454,15315,0.078,551
2019-11-01T09:21:10,42.805,6.029,CST-1368DR,7466,10454,15316,0.078,551
2019-11-01T09:24:11,42.805,6.029,CST-1368DR,7466,10457,15320,0.077,551
2019-11-01T09:27:13,42.805,6.029,CST-1368DR,7466,10454,15316,0.078,551
2019-11-01T09:30:15,42.805,6.029,CST-1368DR,7466,10457,15320,0.077,551
2019-11-01T09:33:16,42.805,6.029,CST-1368DR,7466,10455,15317,0.077,551
2019-11-01T09:36:18,42.805,6.029,CST-1368DR,7466,10457,15320,0.077,551
2019-11-01T09:39:19,42.805,6.029,CST-1368DR,7466,10456,15319,0.077,551
2019-11-01T09:42:21,42.805,6.029,CST-1368DR,7466,10456,15319,0.077,551
2019-11-01T09:45:23,42.805,6.029,CST-1368DR,7466,10456,15319,0.077,551
2019-11-01T09:48:24,42.805,6.029,CST-1368DR,7466,10454,15315,0.078,551
2019-11-01T09:51:26,42.805,6.029,CST-1368DR,7465,10456,15320,0.077,551
2019-11-01T09:54:28,42.805,6.029,CST-1368DR,7465,10457,15323,0.076,551
2019-11-01T09:57:29,42.805,6.029,CST-1368DR,7465,10455,15319,0.077,551
2019-11-01T10:00:31,42.805,6.029,CST-1368DR,7465,10455,15319,0.077,551
2019-11-01T10:03:32,42.805,6.029,CST-1368DR,7465,10456,15320,0.077,551
2019-11-01T10:06:34,42.805,6.029,CST-1368DR,7465,10454,15318,0.077,551
2019-11-01T10:09:36,42.805,6.029,CST-1368DR,7465,10454,15318,0.077,551
2019-11-01T10:12:37,42.805,6.029,CST-1368DR,7465,10456,15320,0.077,551
2019-11-01T10:15:39,42.805,6.029,CST-1368DR,7465,10456,15320,0.077,551
2019-11-01T10:18:41,42.805,6.029,CST-1368DR,7465,10456,15321,0.076,551
2019-11-01T10:21:42,42.805,6.029,CST-1368DR,7465,10456,15320,0.077,551
2019-11-01T10:24:44,42.805,6.029,CST-1368DR,7465,10456,15320,0.077,550
2019-11-01T10:27:46,42.805,6.029,CST-1368DR,7465,10456,15321,0.076,551
2019-11-01T10:30:47,42.805,6.029,CST-1368DR,7465,10455,15319,0.077,551
2019-11-01T10:33:49,42.805,6.029,CST-1368DR,7465,10456,15321,0.076,551
2019-11-01T10:36:51,42.805,6.029,CST-1368DR,7465,10456,15321,0.076,551
2019-11-01T10:39:53,42.805,6.029,CST-1368DR,7465,10454,15318,0.077,551
2019-11-01T10:42:54,42.805,6.029,CST-1368DR,7465,10456,15321,0.076,551
2019-11-01T10:45:56,42.805,6.029,CST-1368DR,7465,10455,15319,0.077,551
2019-11-01T10:48:58,42.805,6.029,CST-1368DR,7465,10456,15320,0.077,551
2019-11-01T10:51:59,42.805,6.029,CST-1368DR,7465,10456,15321,0.076,551
2019-11-01T10:55:01,42.805,6.029,CST-1368DR,7465,10456,15320,0.077,551
2019-11-01T10:58:03,42.805,6.029,CST-1368DR,7465,10456,15320,0.077,550
2019-11-01T11:01:04,42.805,6.029,CST-1368DR,7465,10456,15320,0.077,551
2019-11-01T11:04:06,42.805,6.029,CST-1368DR,7465,10454,15318,0.077,551
2019-11-01T11:07:08,42.805,6.029,CST-1368DR,7465,10456,15321,0.076,551
2019-11-01T11:10:09,42.805,6.029,CST-1368DR,7465,10451,15313,0.078,551
2019-11-01T11:13:11,42.805,6.029,CST-1368DR,7465,10455,15319,0.077,551
2019-11-01T11:16:12,42.805,6.029,CST-1368DR,7465,10454,15318,0.077,551
2019-11-01T11:19:14,42.805,6.029,CST-1368DR,7465,10455,15319,0.077,551
2019-11-01T11:22:16,42.805,6.029,CST-1368DR,7465,10455,15319,0.077,551
2019-11-01T11:25:17,42.805,6.029,CST-1368DR,7465,10454,15318,0.077,551
2019-11-01T11:28:19,42.805,6.029,CST-1368DR,7465,10449,15310,0.079,551
2019-11-01T11:31:21,42.805,6.029,CST-1368DR,7465,10455,15319,0.077,551
2019-11-01T11:34:22,42.805,6.029,CST-1368DR,7465,10455,15319,0.077,551
2019-11-01T11:37:24,42.805,6.029,CST-1368DR,7465,10454,15317,0.077,551
2019-11-01T11:40:26,42.805,6.029,CST-1368DR,7465,10454,15318,0.077,551
2019-11-01T11:43:27,42.805,6.029,CST-1368DR,7465,10454,15318,0.077,551
2019-11-01T11:46:29,42.805,6.029,CST-1368DR,7465,10452,15315,0.078,551
2019-11-01T11:49:30,42.805,6.029,CST-1368DR,7465,10452,15315,0.078,551
2019-11-01T11:52:32,42.805,6.029,CST-1368DR,7465,10454,15318,0.077,551
2019-11-01T11:55:34,42.805,6.029,CST-1368DR,7465,10453,15316,0.078,551
2019-11-01T11:58:35,42.805,6.029,CST-1368DR,7465,10454,15318,0.077,551
2019-11-01T12:01:37,42.805,6.029,CST-1368DR,7465,10455,15319,0.077,551
2019-11-01T12:04:39,42.805,6.029,CST-1368DR,7465,10455,15319,0.077,551
2019-11-01T12:07:40,42.805,6.029,CST-1368DR,7465,10455,15319,0.077,551
2019-11-01T12:10:42,42.805,6.029,CST-1368DR,7465,10455,15319,0.077,551
2019-11-01T12:13:44,42.805,6.029,CST-1368DR,7465,10453,15317,0.077,551
2019-11-01T12:16:45,42.805,6.029,CST-1368DR,7465,10454,15318,0.077,551
2019-11-01T12:19:47,42.805,6.029,CST-1368DR,7465,10456,15320,0.077,551
2019-11-01T12:22:49,42.805,6.029,CST-1368DR,7465,10456,15321,0.076,551
2019-11-01T12:25:50,42.805,6.029,CST-1368DR,7465,10455,15319,0.077,551
2019-11-01T12:28:52,42.805,6.029,CST-1368DR,7465,10456,15320,0.077,551
2019-11-01T12:31:53,42.805,6.029,CST-1368DR,7465,10454,15317,0.077,551
2019-11-01T12:34:55,42.805,6.029,CST-1368DR,7465,10456,15320,0.077,551
2019-11-01T12:37:57,42.805,6.029,CST-1368DR,7465,10453,15317,0.077,551
2019-11-01T12:40:58,42.805,6.029,CST-1368DR,7464,10451,15315,0.078,551
2019-11-01T12:44:00,42.805,6.029,CST-1368DR,7465,10456,15320,0.077,551
2019-11-01T12:47:02,42.805,6.029,CST-1368DR,7465,10453,15317,0.077,551
2019-11-01T12:50:03,42.805,6.029,CST-1368DR,7464,10457,15323,0.076,551
2019-11-01T12:53:05,42.805,6.029,CST-1368DR,7465,10455,15319,0.077,551
2019-11-01T12:56:07,42.805,6.029,CST-1368DR,7464,10454,15319,0.077,551
2019-11-01T12:59:09,42.805,6.029,CST-1368DR,7464,10455,15322,0.076,551
2019-11-01T13:02:10,42.805,6.029,CST-1368DR,7464,10456,15322,0.076,551
2019-11-01T13:05:12,42.805,6.029,CST-1368DR,7464,10454,15320,0.077,551
2019-11-01T13:08:14,42.805,6.029,CST-1368DR,7464,10454,15319,0.077,551
2019-11-01T13:11:15,42.805,6.029,CST-1368DR,7464,10456,15322,0.076,551
2019-11-01T13:14:17,42.805,6.029,CST-1368DR,7464,10454,15320,0.077,551
2019-11-01T13:17:18,42.805,6.029,CST-1368DR,7464,10455,15322,0.076,551
2019-11-01T13:20:20,42.805,6.029,CST-1368DR,7464,10454,15319,0.077,551
2019-11-01T13:23:22,42.805,6.029,CST-1368DR,7464,10451,15316,0.078,551
2019-11-01T13:26:23,42.805,6.029,CST-1368DR,7464,10452,15317,0.077,551
2019-11-01T13:29:25,42.805,6.029,CST-1368DR,7464,10455,15320,0.077,551
2019-11-01T13:32:27,42.805,6.029,CST-1368DR,7464,10455,15320,0.077,551
2019-11-01T13:35:28,42.805,6.029,CST-1368DR,7464,10452,15317,0.077,551
2019-11-01T13:38:30,42.805,6.029,CST-1368DR,7464,10453,15318,0.077,551
2019-11-01T13:41:31,42.805,6.029,CST-1368DR,7464,10454,15319,0.077,551
2019-11-01T13:44:33,42.805,6.029,CST-1368DR,7464,10456,15322,0.076,551
2019-11-01T13:47:35,42.805,6.029,CST-1368DR,7464,10454,15320,0.077,551
2019-11-01T13:50:36,42.805,6.029,CST-1368DR,7464,10455,15322,0.076,550
2019-11-01T13:53:38,42.805,6.029,CST-1368DR,7464,10455,15320,0.077,551
2019-11-01T13:56:40,42.805,6.029,CST-1368DR,7464,10443,15304,0.081,551
2019-11-01T13:59:41,42.805,6.029,CST-1368DR,7464,10455,15321,0.076,551
2019-11-01T14:02:43,42.805,6.029,CST-1368DR,7464,10451,15316,0.078,551
2019-11-01T14:05:45,42.805,6.029,CST-1368DR,7464,10454,15320,0.077,551
2019-11-01T14:08:46,42.805,6.029,CST-1368DR,7464,10453,15318,0.077,551
2019-11-01T14:11:48,42.805,6.029,CST-1368DR,7464,10454,15319,0.077,551
2019-11-01T14:14:50,42.805,6.029,CST-1368DR,7464,10453,15319,0.077,551
2019-11-01T14:17:51,42.805,6.029,CST-1368DR,7464,10453,15318,0.077,551
2019-11-01T14:20:53,42.805,6.029,CST-1368DR,7464,10454,15319,0.077,551
2019-11-01T14:23:55,42.805,6.029,CST-1368DR,7464,10454,15320,0.077,550
2019-11-01T14:26:56,42.805,6.029,CST-1368DR,7464,10454,15319,0.077,551
2019-11-01T14:29:58,42.805,6.029,CST-1368DR,7464,10453,15318,0.077,551
2019-11-01T14:33:00,42.805,6.029,CST-1368DR,7464,10452,15316,0.078,551
2019-11-01T14:36:01,42.805,6.029,CST-1368DR,7464,10453,15318,0.077,551
2019-11-01T14:39:03,42.805,6.029,CST-1368DR,7464,10454,15319,0.077,551
2019-11-01T14:42:04,42.805,6.029,CST-1368DR,7464,10453,15318,0.077,551
2019-11-01T14:45:06,42.805,6.029,CST-1368DR,7464,10454,15320,0.077,551
2019-11-01T14:48:08,42.805,6.029,CST-1368DR,7464,10454,15320,0.077,551
2019-11-01T14:51:09,42.805,6.029,CST-1368DR,7464,10453,15318,0.077,551
2019-11-01T14:54:11,42.805,6.029,CST-1368DR,7464,10453,15318,0.077,550
2019-11-01T14:57:13,42.805,6.029,CST-1368DR,7464,10453,15319,0.077,551
2019-11-01T15:00:14,42.805,6.029,CST-1368DR,7464,10454,15320,0.077,551
2019-11-01T15:03:16,42.805,6.029,CST-1368DR,7464,10453,15318,0.077,551
2019-11-01T15:06:18,42.805,6.029,CST-1368DR,7464,10453,15318,0.077,551
2019-11-01T15:09:19,42.805,6.029,CST-1368DR,7464,10450,15314,0.078,551
2019-11-01T15:12:21,42.805,6.029,CST-1368DR,7464,10454,15320,0.077,551
2019-11-01T15:15:23,42.805,6.029,CST-1368DR,7464,10454,15319,0.077,551
2019-11-01T15:18:24,42.805,6.029,CST-1368DR,7464,10451,15315,0.078,551
2019-11-01T15:21:26,42.805,6.029,CST-1368DR,7464,10454,15319,0.077,551
2019-11-01T15:24:27,42.805,6.029,CST-1368DR,7464,10454,15319,0.077,550
2019-11-01T15:27:29,42.805,6.029,CST-1368DR,7464,10455,15322,0.076,551
2019-11-01T15:30:31,42.805,6.029,CST-1368DR,7464,10454,15319,0.077,551
2019-11-01T15:33:32,42.805,6.029,CST-1368DR,7464,10455,15322,0.076,551
2019-11-01T15:36:34,42.805,6.029,CST-1368DR,7464,10449,15312,0.079,551
2019-11-01T15:39:36,42.805,6.029,CST-1368DR,7464,10454,15320,0.077,551
2019-11-01T15:42:37,42.805,6.029,CST-1368DR,7464,10453,15319,0.077,551
2019-11-01T15:45:39,42.805,6.029,CST-1368DR,7464,10454,15319,0.077,551
2019-11-01T15:48:41,42.805,6.029,CST-1368DR,7464,10450,15313,0.078,550
2019-11-01T15:51:42,42.805,6.029,CST-1368DR,7463,10454,15322,0.076,551
2019-11-01T15:54:44,42.805,6.029,CST-1368DR,7463,10453,15320,0.077,551
2019-11-01T15:57:46,42.805,6.029,CST-1368DR,7463,10453,15321,0.076,551
2019-11-01T16:00:47,42.805,6.029,CST-1368DR,7463,10453,15321,0.076,551
2019-11-01T16:03:49,42.805,6.029,CST-1368DR,7463,10452,15319,0.077,551
2019-11-01T16:06:51,42.805,6.029,CST-1368DR,7463,10453,15321,0.076,551
2019-11-01T16:09:52,42.805,6.029,CST-1368DR,7463,10453,15320,0.077,551
2019-11-01T16:12:54,42.805,6.029,CST-1368DR,7463,10454,15322,0.076,551
2019-11-01T16:15:55,42.805,6.029,CST-1368DR,7463,10451,15316,0.078,551
2019-11-01T16:18:57,42.805,6.029,CST-1368DR,7463,10453,15320,0.077,550
2019-11-01T16:21:59,42.805,6.029,CST-1368DR,7463,10454,15322,0.076,551
2019-11-01T16:25:00,42.805,6.029,CST-1368DR,7463,10455,15323,0.076,550
2019-11-01T16:28:02,42.805,6.029,CST-1368DR,7463,10454,15322,0.076,551
2019-11-01T16:31:04,42.805,6.029,CST-1368DR,7463,10454,15321,0.076,551
2019-11-01T16:34:05,42.805,6.029,CST-1368DR,7463,10452,15318,0.077,551
2019-11-01T16:37:07,42.805,6.029,CST-1368DR,7463,10454,15322,0.076,550